(144277) = 2000 AA21 = 2004 CO100

Discovered at Catalina on 2004-02-15 by CSS.

Orbit

Orbit type: Main Belt

Note: WebGL enabled browser required.

epoch2022-01-21.0
epoch JD2459600.5
perihelion date2021-11-12.23181
perihelion JD2459530.73181
argument of perihelion (°)42.81418
ascending node (°)56.94517
inclination (°)3.06211
eccentricity0.1419869
perihelion distance (AU)2.0294730
Tisserand w.r.t. Jupiter3.5
ΔV w.r.t. Earth (km/sec)8.9
semimajor axis (AU)2.3653170
mean anomaly (°)18.90285
mean daily motion (°/day)0.27093790
aphelion distance (AU)2.701
period (years)3.64
P-vector [x]-0.16869705
P-vector [y]0.88927799
P-vector [z]0.42511875
Q-vector [x]-0.98465056
Q-vector [y]-0.17163402
Q-vector [z]-0.03170242
absolute magnitude16.65
phase slope0.15
uncertainty0
referenceMPO 694212
observations used769
oppositions14
arc length (days)8151
first opposition used2000
last opposition used2022
residual rms (arc-secs)0.75
perturbers coarse indicatorM-v
perturbers precise indicator003Ek
first observation date used2000-01-03.0
last observation date used2022-04-28.0
computer namePan
JD of orbit computation2456612.771108
perihelion JD uncertainty (days)6.5934E-05
argument of perihelion uncertainty (°)7.7382E-05
ascending node uncertainty (°)7.5177E-05
inclination uncertainty (°)4.4232E-06
eccentricity uncertainty 3.6102E-08
perihelion distance uncertainty (AU)8.7287E-08
Minimum Orbit Intersection Distances (in AU)
for orbit epoch: 2459600.5, reference: E2022-B04
Mercury1.71669
Venus1.31039
Earth1.04752
Mars0.41245
Jupiter2.44115
Saturn7.03678
Uranus16.1163
Neptune27.4556

Observations

777 total observations over interval: 2000 01 03.24555 – 2022 04 28.148417
These data are available for download (format description).

Date (UT) J2000 RA J2000 Dec Magn Location Ref
2000 01 03.24555 06 04 00.37 +27 09 36.4 18.8   704 – Lincoln Laboratory ETS, New Mexico MPS 9232
2000 01 03.26036 06 03 59.37 +27 09 37.9 19.3   704 – Lincoln Laboratory ETS, New Mexico MPS 9232
2000 01 03.27515 06 03 58.36 +27 09 37.5 18.9   704 – Lincoln Laboratory ETS, New Mexico MPS 9232
2000 01 03.28997 06 03 57.42 +27 09 39.3 19.0   704 – Lincoln Laboratory ETS, New Mexico MPS 9232
2000 01 04.22609 06 02 58.80 +27 10 54.9 18.8   704 – Lincoln Laboratory ETS, New Mexico MPS 9232
2000 01 04.24084 06 02 57.88 +27 10 55.8 18.9   704 – Lincoln Laboratory ETS, New Mexico MPS 9232
2000 01 04.25546 06 02 56.92 +27 10 57.0 18.8   704 – Lincoln Laboratory ETS, New Mexico MPS 9232
2000 01 04.28475 06 02 54.95 +27 10 59.2 18.8   704 – Lincoln Laboratory ETS, New Mexico MPS 9232
2002 08 20.48057 23 36 32.21 -07 48 16.3 20.3   644 – Palomar Mountain/NEAT MPS 100733
2002 08 20.49088 23 36 31.80 -07 48 19.0 20.3   644 – Palomar Mountain/NEAT MPS 100733
2002 08 20.50172 23 36 31.33 -07 48 23.0 20.1   644 – Palomar Mountain/NEAT MPS 100733
2002 09 14.38982 23 14 59.04 -10 07 20.7 20.9   608 – Haleakala-AMOS MPS 100733
2002 09 14.40042 23 14 58.45 -10 07 23.7 20.9   608 – Haleakala-AMOS MPS 100733
2002 09 14.41175 23 14 57.78 -10 07 27.4 20.7   608 – Haleakala-AMOS MPS 100733
2003 12 22.42135 11 16 58.16 +08 51 45.5 20.1   704 – Lincoln Laboratory ETS, New Mexico MPS 108507
2003 12 22.43451 11 16 58.77 +08 51 42.8 20.0   704 – Lincoln Laboratory ETS, New Mexico MPS 108507
2003 12 22.44761 11 16 59.54 +08 51 40.7 20.0   704 – Lincoln Laboratory ETS, New Mexico MPS 108507
2003 12 22.46075 11 17 00.21 +08 51 36.8 20.1   704 – Lincoln Laboratory ETS, New Mexico MPS 108507
2004 02 15.39123 11 21 44.83 +09 58 35.1 19.5 V 703 – Catalina Sky Survey MPS 100217
2004 02 15.39802 11 21 44.52 +09 58 37.2 18.9 V 703 – Catalina Sky Survey MPS 100217
2004 02 15.40483 11 21 44.18 +09 58 40.3 19.5 V 703 – Catalina Sky Survey MPS 100217
2004 02 15.41163 11 21 43.88 +09 58 42.1 19.2 V 703 – Catalina Sky Survey MPS 100217
2004 02 17.32932 11 20 13.70 +10 09 33.5 19.0   704 – Lincoln Laboratory ETS, New Mexico MPS 100217
2004 02 17.34164 11 20 13.10 +10 09 36.7 19.6   704 – Lincoln Laboratory ETS, New Mexico MPS 100217
2004 02 17.35409 11 20 12.44 +10 09 41.5 19.8   704 – Lincoln Laboratory ETS, New Mexico MPS 100217
2004 02 17.36598 11 20 11.88 +10 09 46.9 19.8   704 – Lincoln Laboratory ETS, New Mexico MPS 100217
2004 02 17.37783 11 20 11.23 +10 09 50.1 19.5   704 – Lincoln Laboratory ETS, New Mexico MPS 100217
2004 02 23.96933 11 14 26.93 +10 48 14.2 19.5 R 620 – Observatorio Astronomico de Mallorca MPS 100217
2004 02 23.97817 11 14 26.40 +10 48 17.6 19.2 R 620 – Observatorio Astronomico de Mallorca MPS 100217
2004 02 23.98698 11 14 25.89 +10 48 20.0 19.4 R 620 – Observatorio Astronomico de Mallorca MPS 100217
2004 02 25.30365 11 13 12.25 +10 56 03.7 18.6   704 – Lincoln Laboratory ETS, New Mexico MPS 100217
2004 02 25.30455 11 13 12.20 +10 56 03.5 19.1   704 – Lincoln Laboratory ETS, New Mexico MPS 100217
2004 02 25.31587 11 13 11.38 +10 56 07.7 19.2   704 – Lincoln Laboratory ETS, New Mexico MPS 100217
2004 02 25.31668 11 13 11.46 +10 56 07.8 19.5   704 – Lincoln Laboratory ETS, New Mexico MPS 100217
2004 02 25.32802 11 13 10.72 +10 56 11.9 19.5   704 – Lincoln Laboratory ETS, New Mexico MPS 100217
2004 02 25.32880 11 13 10.71 +10 56 11.9 19.5   704 – Lincoln Laboratory ETS, New Mexico MPS 100217
2004 02 25.34007 11 13 10.04 +10 56 16.5 19.3   704 – Lincoln Laboratory ETS, New Mexico MPS 100217
2004 02 25.34076 11 13 10.00 +10 56 16.9 19.6   704 – Lincoln Laboratory ETS, New Mexico MPS 100217
2004 02 25.35215 11 13 09.37 +10 56 20.3 19.4   704 – Lincoln Laboratory ETS, New Mexico MPS 100217
2004 02 25.35401 11 13 09.20 +10 56 21.0 19.6   704 – Lincoln Laboratory ETS, New Mexico MPS 100217
2004 03 10.27135 10 59 39.56 +12 10 52.1 18.3   644 – Palomar Mountain/NEAT MPS 100891
2004 03 10.30031 10 59 37.83 +12 11 00.1 18.4   644 – Palomar Mountain/NEAT MPS 100891
2004 03 10.33373 10 59 35.84 +12 11 09.5 18.3   644 – Palomar Mountain/NEAT MPS 100891
2004 03 15.23014 10 55 04.98 +12 31 48.0 19.2   704 – Lincoln Laboratory ETS, New Mexico MPS 101241
2004 03 15.24130 10 55 04.44 +12 31 50.4 19.1   704 – Lincoln Laboratory ETS, New Mexico MPS 101241
2004 03 15.25226 10 55 03.80 +12 31 52.6 19.5   704 – Lincoln Laboratory ETS, New Mexico MPS 101241
2004 03 19.28413 10 51 37.42 +12 45 48.6 19.3   704 – Lincoln Laboratory ETS, New Mexico MPS 102245
2004 03 19.29491 10 51 36.79 +12 45 49.7 19.5   704 – Lincoln Laboratory ETS, New Mexico MPS 102245
2004 03 19.30580 10 51 36.25 +12 45 53.3 19.6   704 – Lincoln Laboratory ETS, New Mexico MPS 102245
2004 03 19.31663 10 51 35.64 +12 45 54.2 19.5   704 – Lincoln Laboratory ETS, New Mexico MPS 102245
2004 03 19.32751 10 51 35.14 +12 45 57.2 19.7   704 – Lincoln Laboratory ETS, New Mexico MPS 102245
2004 03 22.29015 10 49 16.46 +12 54 12.2 19.4   704 – Lincoln Laboratory ETS, New Mexico MPS 102245
2004 03 22.30176 10 49 15.84 +12 54 14.0 19.6   704 – Lincoln Laboratory ETS, New Mexico MPS 102245
2004 03 22.32433 10 49 14.73 +12 54 17.9 19.6   704 – Lincoln Laboratory ETS, New Mexico MPS 102245
2004 03 22.33546 10 49 14.23 +12 54 19.3 19.4   704 – Lincoln Laboratory ETS, New Mexico MPS 102245
2004 03 26.28777 10 46 28.80 +13 02 34.6 19.4 V 703 – Catalina Sky Survey MPS 103168
2004 03 26.29800 10 46 28.60 +13 02 35.4 19.4 V 703 – Catalina Sky Survey MPS 103168
2004 03 26.30826 10 46 28.24 +13 02 39.4 20.0 V 703 – Catalina Sky Survey MPS 103168
2004 03 26.31849 10 46 27.72 +13 02 40.0 20.3 V 703 – Catalina Sky Survey MPS 103168
2006 10 11.36262 02 51 33.97 +14 07 13.2 19.4 R 644 – Palomar Mountain/NEAT MPS 182933
2006 10 11.38356 02 51 33.09 +14 07 10.8 19.8 R 644 – Palomar Mountain/NEAT MPS 182933
2006 10 11.40448 02 51 32.22 +14 07 08.5 19.6 R 644 – Palomar Mountain/NEAT MPS 182933
2006 10 15.34530 02 48 44.61 +13 59 06.7   691 – Steward Observatory, Kitt Peak-Spacewatch MPS 182933
2006 10 15.36326 02 48 43.88 +13 59 04.0   691 – Steward Observatory, Kitt Peak-Spacewatch MPS 182933
2006 10 15.38061 02 48 43.03 +13 59 01.3   691 – Steward Observatory, Kitt Peak-Spacewatch MPS 182933
2006 10 16.32086 02 47 59.42 +13 56 54.6 18.7 V 703 – Catalina Sky Survey MPS 182933
2006 10 16.32787 02 47 59.02 +13 56 53.8 18.6 V 703 – Catalina Sky Survey MPS 182933
2006 10 16.33491 02 47 58.70 +13 56 51.4 19.3 V 703 – Catalina Sky Survey MPS 182933
2006 10 16.34194 02 47 58.30 +13 56 51.3 18.9 V 703 – Catalina Sky Survey MPS 182933
2006 10 19.33531 02 45 30.19 +13 49 32.4 19.5 V 691 – Steward Observatory, Kitt Peak-Spacewatch MPS 182933
2006 10 19.35276 02 45 29.23 +13 49 29.7 19.5 V 691 – Steward Observatory, Kitt Peak-Spacewatch MPS 182933
2006 10 19.37022 02 45 28.29 +13 49 27.2 19.4 V 691 – Steward Observatory, Kitt Peak-Spacewatch MPS 182933
2006 10 19.48065 02 45 22.35 +13 49 09.4 19.6 R 644 – Palomar Mountain/NEAT MPS 184054
2006 10 19.50106 02 45 21.27 +13 49 06.3 19.2 R 644 – Palomar Mountain/NEAT MPS 184054
2006 10 19.52151 02 45 20.16 +13 49 02.6 19.5 R 644 – Palomar Mountain/NEAT MPS 184054
2006 10 23.32717 02 41 54.30 +13 38 46.1 19.4 V 691 – Steward Observatory, Kitt Peak-Spacewatch MPS 184054
2006 10 23.34460 02 41 53.23 +13 38 42.5 20.0 V 691 – Steward Observatory, Kitt Peak-Spacewatch MPS 184054
2006 10 23.36497 02 41 52.08 +13 38 39.7 19.4 V 691 – Steward Observatory, Kitt Peak-Spacewatch MPS 184054
2006 10 27.34130 02 38 00.67 +13 27 01.9 19.5 V 691 – Steward Observatory, Kitt Peak-Spacewatch MPS 185436
2006 10 27.35915 02 37 59.58 +13 26 58.8 19.5 V 691 – Steward Observatory, Kitt Peak-Spacewatch MPS 185436
2006 10 27.37656 02 37 58.48 +13 26 55.7 19.3 V 691 – Steward Observatory, Kitt Peak-Spacewatch MPS 185436
2006 10 28.24779 02 37 06.44 +13 24 16.6 18.7   704 – Lincoln Laboratory ETS, New Mexico MPS 185436
2006 10 28.25959 02 37 05.60 +13 24 14.1 18.7   704 – Lincoln Laboratory ETS, New Mexico MPS 185436
2006 10 28.27189 02 37 04.87 +13 24 11.6 18.8   704 – Lincoln Laboratory ETS, New Mexico MPS 185436
2006 10 28.28368 02 37 04.09 +13 24 09.9 18.7   704 – Lincoln Laboratory ETS, New Mexico MPS 185436
